Terminal Aerodrome Forecast
Issued by NWS

Home | Current Version | Previous Version | Text Only | Print | Product List | Glossary On
Versions: 1 2 3 4 5 6 7 8 9 10 11 12 13 14 15 16 17 18 19 20
000
FTAK31 PAJN 291744
TAFAWG
TAF
PAWG 291744Z 2918/3018 14006KT P6SM -RA BKN025 OVC040
     FM300000 VRB04KT 5SM -SHRA BR OVC025
     FM300300 VRB04KT P6SM -SHRA BKN020 OVC040
     FM300600 VRB03KT 6SM -SHRA OVC025
     FM301000 VRB03KT P6SM VCSH SCT025 OVC050
      AMD LTD TO CLD VIS AND WIND 3006/3015=

USA.gov is the U.S. government's official web portal to all federal, state and local government web resources and services.